This is the latest recevied weather packets stored in our database for station/object KD4IZ-13. If no packets are shown the sender has not sent any weather packets the latest 10 day(s).
| Time | Temp. | Humidity | Pressure | Rain* | Wind** | Luminosity | Snow |
|---|---|---|---|---|---|---|---|
| 1777663330 | 17.22° C | 50% | 1012.9 hPa | 0 mm | - | 636 W/m² | - |
| 1777663028 | 16.11° C | 48% | 1013.1 hPa | 0 mm | - | 648 W/m² | - |
| 1777662725 | 15.56° C | 50% | 1013.4 hPa | 0 mm | - | 314 W/m² | - |
| 1777662421 | 16.11° C | 51% | 1013.6 hPa | 0 mm | - | 163 W/m² | - |
| 1777662116 | 16.11° C | 50% | 1013.6 hPa | 0 mm | - | 720 W/m² | - |
| 1777661813 | 16.67° C | 50% | 1013.8 hPa | 0 mm | - | 338 W/m² | - |
| 1777661509 | 16.67° C | 48% | 1013.7 hPa | 0 mm | - | 665 W/m² | - |
| 1777661205 | 16.11° C | 50% | 1013.8 hPa | 0 mm | - | 683 W/m² | - |
| 1777660899 | 15.56° C | 50% | 1013.9 hPa | 0 mm | - | 686 W/m² | - |
| 1777660596 | 16.11° C | 53% | 1013.8 hPa | 0 mm | - | 530 W/m² | - |
| 1777660293 | 16.11° C | 50% | 1014.1 hPa | 0 mm | - | 705 W/m² | - |
| 1777659989 | 15.56° C | 52% | 1013.9 hPa | 0 mm | - | 661 W/m² | - |
| 1777659686 | 16.11° C | 54% | 1014.4 hPa | 0 mm | - | 388 W/m² | - |
| 1777659384 | 16.11° C | 51% | 1014.3 hPa | 0 mm | - | 706 W/m² | - |
| 1777659080 | 16.11° C | 53% | 1014.4 hPa | 0 mm | - | 282 W/m² | - |
| 1777658779 | 16.11° C | 51% | 1014.3 hPa | 0 mm | - | 701 W/m² | - |
| 1777658474 | 15.56° C | 55% | 1014.2 hPa | 0 mm | - | 694 W/m² | - |
| 1777658171 | 15.56° C | 51% | 1014.1 hPa | 0 mm | - | 695 W/m² | - |
| 1777657868 | 15.56° C | 53% | 1014.4 hPa | 0 mm | - | 691 W/m² | - |
| 1777657565 | 15.56° C | 51% | 1014.3 hPa | 0 mm | - | 696 W/m² | - |
| 1777657262 | 16.11° C | 51% | 1014.5 hPa | 0 mm | - | 634 W/m² | - |
| 1777656960 | 15° C | 52% | 1014.4 hPa | 0 mm | - | 691 W/m² | - |
| 1777656656 | 15.56° C | 55% | 1014.6 hPa | 0 mm | - | 724 W/m² | - |
| 1777656352 | 15° C | 51% | 1014.4 hPa | 0 mm | - | 702 W/m² | - |
| 1777656048 | 15° C | 53% | 1014.6 hPa | 0 mm | - | 705 W/m² | - |
* Rain latest hour (hover to see other rain measurements)
** Current wind speed in m/s (hover to see current wind gust speed)